ELY5183 LLBG-LATI

Flight info

Callsign ELY5183
Flight time N/A
Altitude 38000
Route SUVAS DCT STEPA L53 ANIDE DCT UVRIT DCT KUGGI DCT DIMIS DCT ADDER L604 ELBAK
Aircraft B738/M-SDE2E3FGHIRWXY/LB1

Departure

Time N/A
Airport Ben Gurion International Airport (LLBG)

Arrival

Time 2026-05-08 18:58
Airport Tirana International Airport Mother Teresa (LATI)
Time Latitude Longitude Altitude Speed Heading
2026-05-08 18:37 40.71036 20.18259 22838 ft 347 kts 329°
2026-05-08 18:38 40.73185 20.16841 22409 ft 344 kts 329°
2026-05-08 18:38 40.75317 20.15434 22028 ft 342 kts 329°
2026-05-08 18:38 40.77440 20.14032 21643 ft 339 kts 329°
2026-05-08 18:38 40.78835 20.13110 21381 ft 338 kts 329°
2026-05-08 18:39 40.81615 20.11272 20854 ft 336 kts 329°
2026-05-08 18:39 40.83699 20.09892 20479 ft 334 kts 329°
2026-05-08 18:39 40.85757 20.08494 20092 ft 331 kts 324°
2026-05-08 18:39 40.87489 20.06557 19688 ft 324 kts 308°
2026-05-08 18:40 40.88953 20.04315 19361 ft 321 kts 307°
2026-05-08 18:40 40.89917 20.02789 19116 ft 319 kts 307°
2026-05-08 18:40 40.91334 20.00530 18749 ft 319 kts 306°
2026-05-08 18:40 40.92734 19.98304 18408 ft 318 kts 307°
2026-05-08 18:41 40.94148 19.96067 18038 ft 316 kts 307°
2026-05-08 18:41 40.95556 19.93848 17638 ft 315 kts 307°
2026-05-08 18:41 40.96965 19.91633 17214 ft 314 kts 307°
2026-05-08 18:41 40.98372 19.89424 16818 ft 314 kts 307°
2026-05-08 18:42 40.99778 19.87218 16438 ft 313 kts 307°
2026-05-08 18:42 41.01177 19.85023 16062 ft 312 kts 307°
2026-05-08 18:42 41.02577 19.82826 15692 ft 311 kts 307°
2026-05-08 18:42 41.03972 19.80635 15283 ft 311 kts 307°
2026-05-08 18:43 41.05383 19.78416 14679 ft 318 kts 307°
2026-05-08 18:43 41.06806 19.76176 14082 ft 325 kts 307°
2026-05-08 18:43 41.08289 19.73842 13437 ft 326 kts 307°
2026-05-08 18:43 41.09743 19.71555 12742 ft 324 kts 307°
2026-05-08 18:44 41.11188 19.69279 12093 ft 321 kts 307°
2026-05-08 18:44 41.12616 19.67030 11621 ft 313 kts 307°
2026-05-08 18:44 41.13969 19.64899 11376 ft 300 kts 307°
2026-05-08 18:44 41.15276 19.62835 11129 ft 295 kts 307°
2026-05-08 18:45 41.16662 19.60838 10875 ft 296 kts 320°
2026-05-08 18:45 41.18506 19.59601 10629 ft 301 kts 343°
2026-05-08 18:45 41.20579 19.59162 10416 ft 301 kts 351°
2026-05-08 18:45 41.22667 19.58891 10174 ft 301 kts 352°
2026-05-08 18:46 41.24757 19.58646 9930 ft 301 kts 352°
2026-05-08 18:46 41.26843 19.58397 9694 ft 300 kts 352°
2026-05-08 18:46 41.28913 19.58141 9432 ft 298 kts 352°
2026-05-08 18:46 41.30964 19.57878 9167 ft 295 kts 352°
2026-05-08 18:47 41.33002 19.57610 8903 ft 293 kts 352°
2026-05-08 18:47 41.35021 19.57342 8650 ft 291 kts 352°
2026-05-08 18:47 41.37025 19.57073 8397 ft 289 kts 352°
2026-05-08 18:47 41.39016 19.56804 8146 ft 286 kts 352°
2026-05-08 18:48 41.40991 19.56537 7901 ft 284 kts 352°
2026-05-08 18:48 41.42955 19.56270 7648 ft 283 kts 352°
2026-05-08 18:48 41.44909 19.56005 7398 ft 281 kts 352°
2026-05-08 18:48 41.46850 19.55741 7203 ft 277 kts 352°
2026-05-08 18:49 41.48763 19.55481 6953 ft 276 kts 352°
2026-05-08 18:49 41.50673 19.55221 6688 ft 276 kts 352°
2026-05-08 18:49 41.52561 19.54964 6406 ft 277 kts 352°
2026-05-08 18:49 41.54504 19.54699 6092 ft 278 kts 353°
2026-05-08 18:50 41.56404 19.54440 5798 ft 278 kts 353°
2026-05-08 18:50 41.58330 19.54177 5521 ft 278 kts 353°
2026-05-08 18:50 41.60251 19.53970 5282 ft 275 kts
2026-05-08 18:50 41.62055 19.54644 5154 ft 268 kts 31°
2026-05-08 18:51 41.63379 19.56309 5042 ft 259 kts 58°
2026-05-08 18:51 41.64077 19.58464 4945 ft 249 kts 79°
2026-05-08 18:51 41.64316 19.60707 4871 ft 238 kts 86°
2026-05-08 18:51 41.64461 19.62867 4673 ft 230 kts 86°
2026-05-08 18:52 41.64601 19.64974 4424 ft 224 kts 86°
2026-05-08 18:52 41.64438 19.66950 4254 ft 207 kts 120°
2026-05-08 18:52 41.63453 19.68139 4162 ft 191 kts 160°
2026-05-08 18:52 41.62213 19.68689 3932 ft 187 kts 163°
2026-05-08 18:53 41.60967 19.69125 3687 ft 184 kts 166°
2026-05-08 18:53 41.59728 19.69499 3450 ft 181 kts 168°
2026-05-08 18:53 41.58489 19.69759 3206 ft 179 kts 172°
2026-05-08 18:53 41.57262 19.69947 2978 ft 176 kts 173°
2026-05-08 18:54 41.56050 19.70112 2736 ft 175 kts 173°
2026-05-08 18:54 41.54848 19.70273 2524 ft 173 kts 173°
2026-05-08 18:54 41.53657 19.70432 2304 ft 170 kts 173°
2026-05-08 18:54 41.52486 19.70587 2063 ft 166 kts 173°
2026-05-08 18:55 41.50318 19.70878 1652 ft 150 kts 173°
2026-05-08 18:55 41.49284 19.71015 1445 ft 150 kts 174°
2026-05-08 18:55 41.48239 19.71155 1268 ft 152 kts 174°
2026-05-08 18:56 41.47185 19.71295 1047 ft 152 kts 174°
2026-05-08 18:56 41.46138 19.71435 844 ft 150 kts 174°
2026-05-08 18:56 41.45127 19.71561 667 ft 145 kts 174°
2026-05-08 18:56 41.44165 19.71705 451 ft 145 kts 173°
2026-05-08 18:57 41.43139 19.71828 259 ft 148 kts 173°
2026-05-08 18:57 41.42466 19.71924 127 ft 146 kts 173°
2026-05-08 18:57 41.41442 19.72062 123 ft 70 kts 174°
2026-05-08 18:57 41.41023 19.72116 132 ft 53 kts 174°
2026-05-08 18:58 41.40768 19.72153 133 ft 12 kts 174°
2026-05-08 18:58 41.40694 19.72131 133 ft 11 kts 228°
2026-05-08 18:58 41.40666 19.72022 127 ft 14 kts 256°
2026-05-08 18:58 41.40644 19.71900 130 ft 13 kts 256°
2026-05-08 18:59 41.40647 19.71787 129 ft 13 kts 316°
2026-05-08 18:59 41.40742 19.71762 129 ft 17 kts 353°
2026-05-08 18:59 41.40856 19.71738 127 ft 16 kts 348°
2026-05-08 18:59 41.40964 19.71712 128 ft 16 kts 352°
2026-05-08 19:00 41.41087 19.71697 125 ft 22 kts 354°
2026-05-08 19:00 41.41241 19.71676 128 ft 22 kts 354°
2026-05-08 19:00 41.41392 19.71656 124 ft 21 kts 354°
2026-05-08 19:00 41.41537 19.71637 125 ft 21 kts 354°
2026-05-08 19:01 41.41679 19.71617 125 ft 20 kts 354°
2026-05-08 19:01 41.41817 19.71599 119 ft 20 kts 354°
2026-05-08 19:01 41.41950 19.71581 119 ft 19 kts 354°
2026-05-08 19:01 41.42079 19.71562 119 ft 18 kts 354°
2026-05-08 19:02 41.42203 19.71546 119 ft 17 kts 354°
2026-05-08 19:02 41.42321 19.71530 119 ft 17 kts 354°
2026-05-08 19:02 41.42416 19.71517 118 ft 11 kts 354°
2026-05-08 19:02 41.42457 19.71477 117 ft 6 kts 277°
2026-05-08 19:03 41.42455 19.71450 118 ft 1 kts 265°
2026-05-08 19:03 41.42455 19.71448 118 ft 0 kts 265°